| time (UTC) | temp C | wind direction | speed KPH | gust KPH | rain 1hr cm | rain 24hr cm | rain mn cm | humidity % | barometer mb |
| 20260505083515 | 5 | 101 | 3.2 | 6.4 | 0.00 | 0.23 | 0.08 | 93 | 1012.3 |
| 20260505083031 | 5 | 101 | 1.6 | 6.4 | 0.00 | 0.23 | 0.08 | 93 | 1012.4 |
| 20260505082513 | 5 | 40 | 1.6 | 4.8 | 0.00 | 0.23 | 0.08 | 93 | 1012.5 |
| 20260505082015 | 5 | 0 | 0.0 | 3.2 | 0.00 | 0.23 | 0.08 | 93 | 1012.7 |
| 20260505081541 | 5 | 0 | 0.0 | 3.2 | 0.00 | 0.23 | 0.08 | 93 | 1012.6 |
| 20260505081013 | 5 | 40 | 1.6 | 3.2 | 0.00 | 0.23 | 0.08 | 93 | 1013.0 |
| 20260505080516 | 5 | 0 | 0.0 | 3.2 | 0.00 | 0.23 | 0.08 | 93 | 1013.0 |
| 20260505080033 | 5 | 40 | 0.0 | 3.2 | 0.00 | 0.23 | 0.08 | 93 | 1012.9 |
| 20260505075512 | 5 | 40 | 0.0 | 3.2 | 0.00 | 0.23 | 0.08 | 93 | 1012.9 |
| 20260505075016 | 5 | 40 | 0.0 | 4.8 | 0.00 | 0.23 | 0.08 | 93 | 1013.0 |
| 20260505074530 | 5 | 40 | 1.6 | 4.8 | 0.00 | 0.23 | 0.08 | 92 | 1013.1 |
| 20260505074012 | 5 | 40 | 3.2 | 6.4 | 0.03 | 0.23 | 0.08 | 92 | 1013.2 |
| 20260505073512 | 5 | 40 | 3.2 | 6.4 | 0.03 | 0.23 | 0.08 | 92 | 1013.2 |
| 20260505073043 | 5 | 40 | 3.2 | 6.4 | 0.03 | 0.23 | 0.08 | 92 | 1013.2 |
| 20260505072512 | 5 | 40 | 3.2 | 9.7 | 0.03 | 0.23 | 0.08 | 92 | 1013.3 |
| 20260505072012 | 5 | 40 | 4.8 | 9.7 | 0.03 | 0.23 | 0.08 | 91 | 1013.2 |
| 20260505071546 | 5 | 40 | 6.4 | 9.7 | 0.05 | 0.23 | 0.08 | 91 | 1013.2 |
| 20260505071014 | 5 | 20 | 4.8 | 11.3 | 0.05 | 0.23 | 0.08 | 91 | 1013.2 |
| 20260505070515 | 5 | 20 | 6.4 | 11.3 | 0.05 | 0.23 | 0.08 | 91 | 1013.5 |
| 20260505070034 | 5 | 20 | 4.8 | 11.3 | 0.05 | 0.23 | 0.08 | 91 | 1013.5 |
| 20260505065514 | 5 | 20 | 6.4 | 11.3 | 0.08 | 0.23 | 0.08 | 91 | 1013.5 |
| 20260505065016 | 5 | 20 | 4.8 | 11.3 | 0.08 | 0.23 | 0.08 | 91 | 1013.6 |
| 20260505064533 | 5 | 20 | 4.8 | 12.9 | 0.08 | 0.23 | 0.08 | 91 | 1013.5 |
| 20260505064019 | 5 | 20 | 8.0 | 12.9 | 0.05 | 0.20 | 0.05 | 90 | 1013.4 |
| 20260505063515 | 5 | 20 | 3.2 | 11.3 | 0.05 | 0.20 | 0.05 | 91 | 1013.4 |
| 20260505063030 | 5 | 20 | 3.2 | 14.5 | 0.05 | 0.20 | 0.05 | 90 | 1013.5 |
| 20260505062516 | 5 | 20 | 9.7 | 14.5 | 0.05 | 0.20 | 0.05 | 90 | 1013.0 |
| 20260505062015 | 5 | 9 | 8.0 | 12.9 | 0.05 | 0.20 | 0.05 | 90 | 1013.0 |
| 20260505061533 | 5 | 9 | 1.6 | 8.0 | 0.03 | 0.18 | 0.03 | 90 | 1013.5 |
| 20260505061017 | 5 | 9 | 3.2 | 8.0 | 0.03 | 0.18 | 0.03 | 90 | 1013.7 |
| 20260505060515 | 5 | 9 | 4.8 | 8.0 | 0.03 | 0.18 | 0.03 | 89 | 1013.5 |
| 20260505060033 | 5 | 9 | 3.2 | 9.7 | 0.00 | 0.15 | 0.00 | 89 | 1013.5 |
| 20260505055514 | 5 | 338 | 3.2 | 9.7 | 0.00 | 0.15 | 0.15 | 89 | 1013.5 |
| 20260505055014 | 5 | 338 | 4.8 | 9.7 | 0.00 | 0.15 | 0.15 | 88 | 1013.8 |
| 20260505054547 | 5 | 324 | 3.2 | 9.7 | 0.00 | 0.15 | 0.15 | 88 | 1013.8 |
| 20260505054014 | 5 | 324 | 4.8 | 12.9 | 0.00 | 0.15 | 0.15 | 88 | 1013.7 |
| 20260505053513 | 5 | 332 | 8.0 | 12.9 | 0.00 | 0.15 | 0.15 | 88 | 1013.7 |
| 20260505053050 | 5 | 317 | 6.4 | 16.1 | 0.00 | 0.15 | 0.15 | 87 | 1013.9 |
| 20260505052518 | 5 | 309 | 9.7 | 16.1 | 0.00 | 0.15 | 0.15 | 87 | 1013.8 |
| 20260505052014 | 5 | 307 | 8.0 | 14.5 | 0.00 | 0.15 | 0.15 | 87 | 1013.8 |
| 20260505051538 | 5 | 306 | 8.0 | 14.5 | 0.00 | 0.15 | 0.15 | 86 | 1013.7 |
| 20260505051016 | 5 | 319 | 8.0 | 14.5 | 0.00 | 0.15 | 0.15 | 86 | 1013.7 |
| 20260505050516 | 5 | 321 | 8.0 | 14.5 | 0.00 | 0.15 | 0.15 | 86 | 1013.7 |
| 20260505041530 | 5 | 347 | 4.8 | 8.0 | 0.03 | 0.15 | 0.15 | 85 | 1013.1 |
| 20260505041015 | 5 | 347 | 4.8 | 12.9 | 0.05 | 0.15 | 0.15 | 85 | 1012.9 |
| 20260505040514 | 5 | 347 | 4.8 | 12.9 | 0.08 | 0.15 | 0.15 | 84 | 1013.0 |
| 20260505040036 | 5 | 24 | 8.0 | 16.1 | 0.08 | 0.15 | 0.15 | 83 | 1013.0 |
| 20260505035513 | 6 | 24 | 8.0 | 16.1 | 0.08 | 0.15 | 0.15 | 82 | 1013.0 |
| 20260505035014 | 5 | 20 | 11.3 | 14.5 | 0.10 | 0.15 | 0.15 | 83 | 1012.8 |
| 20260505034532 | 5 | 20 | 8.0 | 11.3 | 0.10 | 0.15 | 0.15 | 83 | 1013.3 |
| 20260505034016 | 5 | 20 | 6.4 | 14.5 | 0.10 | 0.15 | 0.15 | 83 | 1013.4 |
| 20260505033513 | 6 | 20 | 8.0 | 16.1 | 0.10 | 0.15 | 0.15 | 83 | 1013.3 |
| 20260505033040 | 6 | 10 | 8.0 | 16.1 | 0.10 | 0.15 | 0.15 | 82 | 1013.0 |
| 20260505032514 | 5 | 14 | 8.0 | 17.7 | 0.10 | 0.15 | 0.15 | 82 | 1013.1 |
| 20260505032018 | 6 | 325 | 12.9 | 17.7 | 0.08 | 0.13 | 0.13 | 82 | 1013.1 |
| 20260505031530 | 6 | 346 | 12.9 | 17.7 | 0.08 | 0.13 | 0.13 | 81 | 1013.1 |
| 20260505031018 | 6 | 324 | 11.3 | 16.1 | 0.05 | 0.10 | 0.10 | 82 | 1013.2 |
| 20260505030517 | 6 | 327 | 8.0 | 12.9 | 0.03 | 0.08 | 0.08 | 81 | 1013.2 |
| 20260505030032 | 6 | 9 | 8.0 | 12.9 | 0.03 | 0.08 | 0.08 | 81 | 1013.2 |
| 20260505025517 | 6 | 9 | 8.0 | 12.9 | 0.03 | 0.08 | 0.08 | 80 | 1013.1 |
| 20260505025014 | 6 | 9 | 6.4 | 16.1 | 0.00 | 0.05 | 0.05 | 79 | 1013.1 |
| 20260505024531 | 6 | 9 | 8.0 | 16.1 | 0.00 | 0.05 | 0.05 | 79 | 1013.1 |
| 20260505024013 | 6 | 33 | 4.8 | 8.0 | 0.00 | 0.05 | 0.05 | 81 | 1013.1 |
| 20260505023516 | 6 | 33 | 0.0 | 4.8 | 0.03 | 0.05 | 0.05 | 80 | 1013.0 |
| 20260505023032 | 6 | 0 | 0.0 | 4.8 | 0.05 | 0.05 | 0.05 | 79 | 1012.8 |
| 20260505022513 | 6 | 33 | 1.6 | 9.7 | 0.05 | 0.05 | 0.05 | 79 | 1012.4 |
| 20260505022017 | 6 | 33 | 4.8 | 12.9 | 0.05 | 0.05 | 0.05 | 78 | 1012.5 |
| 20260505021533 | 6 | 30 | 6.4 | 12.9 | 0.05 | 0.05 | 0.05 | 77 | 1012.6 |
| 20260505021014 | 6 | 18 | 8.0 | 16.1 | 0.05 | 0.05 | 0.05 | 76 | 1012.7 |
| 20260505020515 | 6 | 5 | 8.0 | 16.1 | 0.05 | 0.05 | 0.05 | 75 | 1013.0 |
| 20260505020032 | 6 | 42 | 4.8 | 25.7 | 0.05 | 0.05 | 0.05 | 73 | 1012.9 |
| 20260505015516 | 7 | 42 | 9.7 | 37.0 | 0.05 | 0.05 | 0.05 | 70 | 1012.6 |
| 20260505015017 | 7 | 24 | 17.7 | 37.0 | 0.05 | 0.05 | 0.05 | 68 | 1012.7 |
| 20260505014531 | 7 | 16 | 17.7 | 37.0 | 0.05 | 0.05 | 0.05 | 67 | 1012.7 |
| 20260505014015 | 7 | 327 | 6.4 | 33.8 | 0.05 | 0.05 | 0.05 | 66 | 1012.4 |
| 20260505013514 | 7 | 309 | 11.3 | 33.8 | 0.03 | 0.03 | 0.03 | 64 | 1012.5 |
| 20260505013030 | 7 | 304 | 11.3 | 46.7 | 0.00 | 0.00 | 0.00 | 66 | 1012.7 |
| 20260505012513 | 8 | 280 | 14.5 | 46.7 | 0.00 | 0.00 | 0.00 | 63 | 1012.8 |
| 20260505012015 | 8 | 311 | 24.1 | 46.7 | 0.00 | 0.00 | 0.00 | 57 | 1012.5 |
| 20260505011536 | 9 | 282 | 12.9 | 17.7 | 0.00 | 0.00 | 0.00 | 53 | 1012.5 |
| 20260505011014 | 9 | 284 | 9.7 | 22.5 | 0.00 | 0.00 | 0.00 | 52 | 1012.0 |
| 20260505010514 | 9 | 287 | 11.3 | 22.5 | 0.00 | 0.00 | 0.00 | 52 | 1011.8 |
| 20260505010030 | 9 | 293 | 16.1 | 25.7 | 0.00 | 0.00 | 0.00 | 52 | 1011.8 |
| 20260505005514 | 9 | 302 | 14.5 | 29.0 | 0.00 | 0.00 | 0.00 | 52 | 1011.5 |
| 20260505005014 | 9 | 302 | 17.7 | 29.0 | 0.00 | 0.00 | 0.00 | 51 | 1011.4 |
| 20260505004534 | 9 | 302 | 16.1 | 29.0 | 0.00 | 0.00 | 0.00 | 51 | 1011.3 |
| 20260505004012 | 10 | 321 | 16.1 | 30.6 | 0.00 | 0.00 | 0.00 | 50 | 1011.2 |
| 20260505003514 | 10 | 355 | 17.7 | 32.2 | 0.00 | 0.00 | 0.00 | 48 | 1011.3 |
| 20260505003031 | 10 | 329 | 20.9 | 32.2 | 0.00 | 0.00 | 0.00 | 45 | 1011.3 |
| 20260505002514 | 10 | 319 | 16.1 | 32.2 | 0.00 | 0.00 | 0.00 | 45 | 1011.2 |
| 20260505002013 | 11 | 5 | 22.5 | 32.2 | 0.00 | 0.00 | 0.00 | 44 | 1011.0 |
| 20260505001531 | 11 | 12 | 19.3 | 32.2 | 0.00 | 0.00 | 0.00 | 43 | 1011.1 |
| 20260505001014 | 11 | 350 | 22.5 | 38.6 | 0.00 | 0.00 | 0.00 | 44 | 1011.2 |
| 20260505000514 | 11 | 347 | 22.5 | 38.6 | 0.00 | 0.00 | 0.00 | 45 | 1011.0 |
| 20260505000033 | 11 | 15 | 22.5 | 38.6 | 0.00 | 0.00 | 0.00 | 41 | 1011.1 |
| 20260504235514 | 11 | 5 | 20.9 | 29.0 | 0.00 | 0.00 | 0.00 | 43 | 1011.1 |
| 20260504235014 | 11 | 360 | 12.9 | 22.5 | 0.00 | 0.00 | 0.00 | 43 | 1011.1 |
| 20260504234532 | 11 | 360 | 11.3 | 25.7 | 0.00 | 0.00 | 0.00 | 42 | 1011.0 |
| 20260504234013 | 11 | 355 | 9.7 | 27.4 | 0.00 | 0.00 | 0.00 | 41 | 1011.3 |
| 20260504233513 | 11 | 360 | 19.3 | 27.4 | 0.00 | 0.00 | 0.00 | 41 | 1011.3 |
| 20260504233030 | 12 | 21 | 16.1 | 20.9 | 0.00 | 0.00 | 0.00 | 40 | 1011.3 |
| 20260504232513 | 12 | 321 | 9.7 | 17.7 | 0.00 | 0.00 | 0.00 | 39 | 1011.2 |
| 20260504232015 | 12 | 308 | 4.8 | 14.5 | 0.00 | 0.00 | 0.00 | 42 | 1011.3 |
| 20260504231529 | 11 | 105 | 3.2 | 14.5 | 0.00 | 0.00 | 0.00 | 41 | 1011.0 |
| 20260504231014 | 11 | 111 | 4.8 | 25.7 | 0.00 | 0.00 | 0.00 | 43 | 1010.9 |
| 20260504230515 | 11 | 182 | 4.8 | 27.4 | 0.00 | 0.00 | 0.00 | 42 | 1011.0 |
| 20260504230032 | 11 | 40 | 9.7 | 40.2 | 0.00 | 0.00 | 0.00 | 45 | 1011.4 |
| 20260504225516 | 11 | 346 | 9.7 | 40.2 | 0.00 | 0.00 | 0.00 | 42 | 1011.6 |
| 20260504225015 | 11 | 60 | 11.3 | 45.1 | 0.00 | 0.00 | 0.00 | 41 | 1011.4 |
| 20260504224530 | 12 | 186 | 27.4 | 45.1 | 0.00 | 0.00 | 0.00 | 37 | 1010.7 |
| 20260504224013 | 13 | 128 | 0.0 | 11.3 | 0.00 | 0.00 | 0.00 | 30 | 1010.7 |
| 20260504223515 | 13 | 92 | 1.6 | 9.7 | 0.00 | 0.00 | 0.00 | 29 | 1010.4 |
| 20260504223030 | 13 | 92 | 4.8 | 17.7 | 0.00 | 0.00 | 0.00 | 28 | 1010.4 |
| 20260504222515 | 13 | 90 | 6.4 | 20.9 | 0.00 | 0.00 | 0.00 | 28 | 1010.5 |
| 20260504222014 | 14 | 108 | 9.7 | 20.9 | 0.00 | 0.00 | 0.00 | 27 | 1010.4 |
| 20260504221536 | 15 | 125 | 12.9 | 20.9 | 0.00 | 0.00 | 0.00 | 25 | 1010.4 |
| 20260504221015 | 15 | 86 | 6.4 | 14.5 | 0.00 | 0.00 | 0.00 | 25 | 1010.3 |
| 20260504220514 | 15 | 86 | 8.0 | 24.1 | 0.00 | 0.00 | 0.00 | 24 | 1010.1 |
| 20260504220030 | 15 | 38 | 11.3 | 30.6 | 0.00 | 0.00 | 0.00 | 24 | 1009.9 |
| 20260504215514 | 15 | 36 | 19.3 | 30.6 | 0.00 | 0.00 | 0.00 | 20 | 1009.9 |
| 20260504215012 | 16 | 29 | 11.3 | 30.6 | 0.00 | 0.00 | 0.00 | 24 | 1010.0 |
| 20260504214539 | 16 | 11 | 16.1 | 30.6 | 0.00 | 0.00 | 0.00 | 22 | 1009.9 |
| 20260504214017 | 16 | 57 | 17.7 | 33.8 | 0.00 | 0.00 | 0.00 | 24 | 1009.9 |
| 20260504213516 | 16 | 40 | 19.3 | 33.8 | 0.00 | 0.00 | 0.00 | 24 | 1010.0 |
| 20260504213029 | 16 | 5 | 19.3 | 27.4 | 0.00 | 0.00 | 0.00 | 22 | 1010.1 |
| 20260504212515 | 16 | 10 | 17.7 | 30.6 | 0.00 | 0.00 | 0.00 | 23 | 1010.2 |
| 20260504212014 | 16 | 94 | 12.9 | 30.6 | 0.00 | 0.00 | 0.00 | 23 | 1010.2 |
| 20260504211532 | 16 | 44 | 12.9 | 20.9 | 0.00 | 0.00 | 0.00 | 21 | 1010.2 |
| 20260504211012 | 16 | 37 | 11.3 | 22.5 | 0.00 | 0.00 | 0.00 | 20 | 1010.2 |
| 20260504210514 | 16 | 33 | 14.5 | 22.5 | 0.00 | 0.00 | 0.00 | 21 | 1010.3 |
| 20260504210034 | 16 | 10 | 8.0 | 16.1 | 0.00 | 0.00 | 0.00 | 22 | 1010.1 |
| 20260504205514 | 16 | 346 | 9.7 | 17.7 | 0.00 | 0.00 | 0.00 | 21 | 1010.2 |
| 20260504205015 | 16 | 340 | 9.7 | 17.7 | 0.00 | 0.00 | 0.00 | 19 | 1010.2 |
| 20260504204530 | 16 | 33 | 8.0 | 17.7 | 0.00 | 0.00 | 0.00 | 19 | 1010.2 |
| 20260504204015 | 16 | 65 | 6.4 | 17.7 | 0.00 | 0.00 | 0.00 | 18 | 1010.3 |
| 20260504203512 | 16 | 360 | 1.6 | 14.5 | 0.00 | 0.00 | 0.00 | 22 | 1010.2 |
| 20260504203032 | 16 | 171 | 8.0 | 14.5 | 0.00 | 0.00 | 0.00 | 21 | 1010.2 |
| 20260504202514 | 16 | 22 | 0.0 | 12.9 | 0.00 | 0.00 | 0.00 | 18 | 1010.4 |
| 20260504202014 | 16 | 36 | 6.4 | 11.3 | 0.00 | 0.00 | 0.00 | 20 | 1010.3 |
| 20260504201530 | 16 | 355 | 4.8 | 9.7 | 0.00 | 0.00 | 0.00 | 19 | 1010.3 |
| 20260504201016 | 16 | 346 | 4.8 | 9.7 | 0.00 | 0.00 | 0.00 | 20 | 1010.3 |
| 20260504200514 | 16 | 307 | 3.2 | 14.5 | 0.00 | 0.00 | 0.00 | 19 | 1010.5 |
| 20260504200040 | 16 | 61 | 1.6 | 14.5 | 0.00 | 0.00 | 0.00 | 19 | 1010.4 |
| 20260504195516 | 16 | 96 | 9.7 | 14.5 | 0.00 | 0.00 | 0.00 | 19 | 1010.6 |
| 20260504195014 | 16 | 134 | 1.6 | 12.9 | 0.00 | 0.00 | 0.00 | 21 | 1010.6 |
| 20260504194536 | 16 | 207 | 4.8 | 12.9 | 0.00 | 0.00 | 0.00 | 19 | 1010.4 |
| 20260504194014 | 16 | 140 | 4.8 | 12.9 | 0.00 | 0.00 | 0.00 | 20 | 1010.6 |
| 20260504193515 | 16 | 84 | 6.4 | 12.9 | 0.00 | 0.00 | 0.00 | 19 | 1010.6 |
| 20260504193029 | 16 | 246 | 3.2 | 16.1 | 0.00 | 0.00 | 0.00 | 17 | 1010.6 |
| 20260504192515 | 17 | 239 | 6.4 | 16.1 | 0.00 | 0.00 | 0.00 | 19 | 1010.7 |
| 20260504192014 | 16 | 219 | 6.4 | 14.5 | 0.00 | 0.00 | 0.00 | 20 | 1010.6 |
| 20260504191546 | 16 | 235 | 4.8 | 14.5 | 0.00 | 0.00 | 0.00 | 20 | 1010.7 |
| 20260504191015 | 15 | 47 | 4.8 | 20.9 | 0.00 | 0.00 | 0.00 | 20 | 1010.8 |
| 20260504190513 | 16 | 69 | 11.3 | 20.9 | 0.00 | 0.00 | 0.00 | 19 | 1010.8 |
| 20260504190032 | 17 | 68 | 8.0 | 20.9 | 0.00 | 0.00 | 0.00 | 20 | 1010.8 |
| 20260504185513 | 17 | 121 | 3.2 | 17.7 | 0.00 | 0.00 | 0.00 | 20 | 1011.0 |
| 20260504185012 | 16 | 66 | 1.6 | 25.7 | 0.00 | 0.00 | 0.00 | 21 | 1011.0 |
| 20260504184533 | 15 | 71 | 8.0 | 33.8 | 0.00 | 0.00 | 0.00 | 21 | 1011.2 |
| 20260504184038 | 15 | 82 | 14.5 | 33.8 | 0.00 | 0.00 | 0.00 | 20 | 1011.4 |
| 20260504183515 | 14 | 303 | 14.5 | 25.7 | 0.00 | 0.00 | 0.00 | 23 | 1011.6 |
| 20260504183041 | 13 | 5 | 6.4 | 35.4 | 0.00 | 0.00 | 0.00 | 20 | 1011.7 |
| 20260504182514 | 13 | 347 | 12.9 | 35.4 | 0.00 | 0.00 | 0.00 | 23 | 1011.8 |
| 20260504182013 | 13 | 347 | 22.5 | 35.4 | 0.00 | 0.00 | 0.00 | 25 | 1011.5 |
| 20260504181531 | 15 | 304 | 20.9 | 32.2 | 0.00 | 0.00 | 0.00 | 22 | 1011.6 |
| 20260504181013 | 15 | 274 | 11.3 | 24.1 | 0.00 | 0.00 | 0.00 | 21 | 1011.6 |
| 20260504180516 | 16 | 284 | 8.0 | 22.5 | 0.00 | 0.00 | 0.00 | 21 | 1011.7 |
| 20260504180033 | 16 | 222 | 9.7 | 22.5 | 0.00 | 0.00 | 0.00 | 19 | 1011.6 |
| 20260504175513 | 16 | 219 | 12.9 | 22.5 | 0.00 | 0.00 | 0.00 | 20 | 1011.6 |
| 20260504175014 | 16 | 226 | 3.2 | 17.7 | 0.00 | 0.00 | 0.00 | 20 | 1011.8 |
| 20260504174532 | 17 | 148 | 4.8 | 24.1 | 0.00 | 0.00 | 0.00 | 21 | 1011.8 |
| 20260504174013 | 17 | 224 | 9.7 | 24.1 | 0.00 | 0.00 | 0.00 | 19 | 1012.1 |
| 20260504173513 | 16 | 208 | 3.2 | 29.0 | 0.00 | 0.00 | 0.00 | 22 | 1012.1 |
| 20260504173030 | 16 | 305 | 6.4 | 29.0 | 0.00 | 0.00 | 0.00 | 23 | 1012.3 |
| 20260504172512 | 16 | 276 | 14.5 | 29.0 | 0.00 | 0.00 | 0.00 | 22 | 1012.4 |
| 20260504172015 | 15 | 223 | 11.3 | 24.1 | 0.00 | 0.00 | 0.00 | 26 | 1012.4 |
| 20260504171532 | 15 | 229 | 16.1 | 24.1 | 0.00 | 0.00 | 0.00 | 26 | 1012.5 |
| 20260504171017 | 15 | 268 | 16.1 | 32.2 | 0.00 | 0.00 | 0.00 | 27 | 1012.5 |
| 20260504170517 | 15 | 252 | 17.7 | 32.2 | 0.00 | 0.00 | 0.00 | 27 | 1012.6 |
| 20260504151012 | 14 | 255 | 25.7 | 33.8 | 0.00 | 0.00 | 0.00 | 27 | 1012.9 |
| 20260504150516 | 14 | 240 | 24.1 | 33.8 | 0.00 | 0.00 | 0.00 | 27 | 1013.0 |
| 20260504141017 | 12 | 251 | 19.3 | 30.6 | 0.00 | 0.00 | 0.00 | 33 | 1012.7 |
| 20260504140512 | 11 | 246 | 22.5 | 30.6 | 0.00 | 0.00 | 0.00 | 32 | 1012.8 |
| 20260504130513 | 8 | 246 | 12.9 | 19.3 | 0.00 | 0.00 | 0.00 | 44 | 1012.8 |
| 20260504110513 | 5 | 244 | 8.0 | 12.9 | 0.00 | 0.00 | 0.00 | 51 | 1012.8 |
| 20260504100514 | 3 | 219 | 0.0 | 4.8 | 0.00 | 0.00 | 0.00 | 56 | 1013.2 |